Location: Mahoning Valley Cortese Observatory
(41.2500°N, 80.9800°W)
Time: 20:50:32
(UTC-05:00)

ISS - Visible Passes

Search period start: 21 November 2017 00:00
Search period end: 01 December 2017 00:00
Orbit: 402 x 407 km, 51.6° (Epoch: 22 November)

Date Brightness Start Highest point End Pass type
(mag) Time Alt. Az. Time Alt. Az. Time Alt. Az.
25 Nov -0.9 19:25:07 10° SW 19:25:38 14° SW 19:25:38 14° SW visible
26 Nov -2.7 18:33:09 10° SSW 18:35:48 31° SSE 18:35:48 31° SSE visible
27 Nov -1.9 17:41:44 10° S 17:43:56 17° SE 17:45:52 11° E visible
27 Nov -1.6 19:16:54 10° WSW 19:18:32 26° W 19:18:32 26° W visible
28 Nov -3.9 18:24:29 10° SW 18:27:45 80° SE 18:28:31 49° ENE visible
29 Nov -3.1 17:32:22 10° SSW 17:35:27 40° SE 17:38:24 11° ENE visible
29 Nov -1.7 19:09:04 10° W 19:11:04 25° NW 19:11:04 25° NW visible
30 Nov -3.1 18:16:19 10° WSW 18:19:28 45° NNW 18:20:53 27° NNE visible
